This demonstration page uses our WeatherBlox Daily Observations layout. Learn more.

38.88101, -77.10428

Hourly Observations for November 24, 2016

Temp ( °F °C ) Dew Point ( °F °C ) Humidity (%) Winds ( mph kmh ) Pressure ( in mb ) Visibility ( mi km ) Precip ( " mm )
12:52 am 00:52 Mostly Cloudy 45 7.2 37 2.8 74 74 SE 5 7 30.27 1025 10 16.09344 0 0
1:52 am 01:52 Mostly Cloudy 44 6.7 37 2.8 76 76 Calm 30.24 1024 10 16.09344 0 0
2:52 am 02:52 Cloudy 44 6.7 37 2.8 76 76 Calm 30.24 1024 10 16.09344 0 0
3:52 am 03:52 Cloudy 44 6.7 37 2.8 76 76 ESE 5 7 30.21 1023 10 16.09344 0 0
4:52 am 04:52 Cloudy 45 7.2 37 2.8 74 74 Calm 30.21 1023 10 16.09344 0 0
5:52 am 05:52 Cloudy 45 7.2 38 3.3 77 77 Calm 30.21 1023 10 16.09344 0 0
6:07 am 06:07 Cloudy with Light Rain 45 7.2 38 3.3 77 77 S 3 6 30.21 1023 10 16.09344 0.001 0.001
6:52 am 06:52 Cloudy with Light Rain 45 7.2 38 3.3 77 77 Calm 30.21 1023 10 16.09344 0.001 0.001
7:52 am 07:52 Cloudy 46 7.8 37 2.8 71 71 S 3 6 30.21 1023 10 16.09344 0.001 0.001
8:52 am 08:52 Cloudy 47 8.3 36 2.2 66 66 S 6 9 30.21 1023 10 16.09344 0 0
9:52 am 09:52 Cloudy 48 8.9 36 2.2 63 63 S 3 6 30.24 1024 10 16.09344 0 0
10:52 am 10:52 Mostly Cloudy 51 10.6 35 1.7 54 54 S 6 9 30.21 1023 10 16.09344 0 0
11:52 am 11:52 Cloudy 53 11.7 35 1.7 51 51 ENE 5 7 30.18 1022 10 16.09344 0 0
12:52 pm 12:52 Mostly Cloudy 55 12.8 34 1.1 45 45 Calm 30.15 1021 10 16.09344 0 0
1:52 pm 13:52 Mostly Cloudy 57 13.9 34 1.1 42 42 N 3 6 30.15 1021 10 16.09344 0 0
2:52 pm 14:52 Mostly Cloudy 56 13.3 36 2.2 47 47 NNE 3 6 30.15 1021 10 16.09344 0 0
3:52 pm 15:52 Mostly Cloudy 57 13.9 37 2.8 47 47 NNE 5 7 30.15 1021 10 16.09344 0 0
4:52 pm 16:52 Mostly Cloudy 56 13.3 35 1.7 46 46 Calm 30.18 1022 10 16.09344 0 0
5:52 pm 17:52 Cloudy 55 12.8 36 2.2 49 49 N 3 6 30.21 1023 10 16.09344 0 0
6:52 pm 18:52 Mostly Cloudy 52 11.1 39 3.9 61 61 Calm 30.21 1023 10 16.09344 0 0
7:52 pm 19:52 Mostly Cloudy 50 10 38 3.3 63 63 N 6 9 30.24 1024 10 16.09344 0 0
8:52 pm 20:52 Partly Cloudy 50 10 38 3.3 63 63 Calm 30.24 1024 10 16.09344 0 0
9:52 pm 21:52 Mostly Cloudy 47 8.3 41 5 80 80 Calm 30.24 1024 10 16.09344 0 0
10:52 pm 22:52 Mostly Clear 46 7.8 40 4.4 79 79 Calm 30.24 1024 10 16.09344 0 0
11:52 pm 23:52 Partly Cloudy 46 8 43 6 87 87 Calm 30.24 1024 10 16.09344 0 0

Powered by AerisWeather